Wind_Speed
30 22 29 33 35 31 31 39 40 37 37 36 32 29 29 23 23 24 24 24 21 19 19 22 22 23 22 21 21 17 16 17 16 16 19 21 22 24 24 26 28 29 30
30 30 34 41 37 37 35 33 40 39 39 40 34 32 29 25 27 24 26 24 23 22 23 23 22 24 21 20 19 16 16 17 17 18 20 21 23 24 26 28 29 29 30
34 34 34 41 38 37 37 38 43 44 41 43 37 33 32 28 31 31 28 27 25 23 23 24 23 25 22 20 19 18 16 18 17 19 20 22 25 28 29 31 30 30 31
30 34 41 44 40 39 46 38 35 49 46 45 38 38 34 32 28 32 29 30 28 25 22 23 24 21 20 22 19 20 19 18 21 20 21 25 28 30 33 33 32 31 30
23 33 48 51 51 44 42 45 39 39 40 49 42 42 40 35 33 31 29 28 28 25 24 23 23 22 23 21 21 19 21 22 22 22 25 27 31 33 34 33 32 32 31
20 24 28 28 40 37 41 40 38 39 39 43 49 45 45 40 36 30 26 25 26 25 23 22 23 24 22 25 20 22 23 23 25 26 28 31 33 32 33 34 34 34 32
22 16 23 27 33 37 34 38 38 39 34 34 42 43 43 35 29 23 22 23 23 21 22 24 24 25 25 19 20 22 25 26 28 30 31 32 34 36 36 36 36 34 35
19 23 33 35 36 33 32 32 34 30 21 26 30 33 27 26 23 21 22 21 21 20 21 21 24 24 21 22 25 25 27 29 30 32 34 36 37 40 40 38 39 39 40
15 21 27 28 29 26 24 20 18 16 23 28 29 27 25 24 22 18 20 17 18 18 19 20 22 23 24 27 29 29 30 31 33 32 35 34 35 39 37 40 41 42 44
12 14 18 14 11 13 7 7 10 16 20 24 22 23 23 18 13 16 16 15 13 16 19 22 22 24 25 27 28 30 31 34 34 34 39 39 42 40 39 40 42 45 46
12 10 9 4 7 8 9 9 12 13 12 16 18 19 19 17 22 25 17 14 16 18 19 21 24 26 27 27 29 31 31 33 36 39 42 37 42 44 42 44 43 46 49
12 15 13 14 12 14 13 15 15 16 18 20 20 18 19 17 18 20 21 20 24 25 24 25 25 27 29 30 30 33 34 36 39 40 42 42 43 45 46 46 46 48 52
20 18 18 19 19 18 18 17 16 19 21 19 14 17 21 20 17 19 21 25 26 26 28 27 30 32 34 36 37 40 43 41 42 45 50 42 43 45 47 49 51 51 53
14 14 13 14 13 12 14 19 22 22 22 21 19 19 21 21 21 23 23 27 29 30 32 32 34 38 39 42 42 43 47 49 48 52 42 43 44 47 49 50 52 53 55
7 9 10 11 13 14 16 17 16 17 20 20 20 22 23 25 24 23 26 30 30 31 32 34 38 42 44 46 44 44 44 45 42 41 45 43 45 49 52 53 55 56 58
8 9 11 13 14 13 14 14 15 17 17 18 20 24 24 24 27 30 31 31 33 38 39 36 39 42 49 51 48 47 42 37 39 45 46 42 47 51 53 54 56 58 61
12 12 13 15 14 16 17 15 19 20 20 22 26 27 25 26 28 29 32 32 36 37 40 41 42 46 49 49 50 46 41 43 47 49 46 46 51 55 55 57 58 59 62
15 17 16 15 17 16 17 17 21 24 23 24 24 26 25 30 32 34 36 39 43 44 44 41 42 42 43 49 45 45 45 50 48 49 48 49 51 52 54 58 59 63 66
16 16 16 17 17 18 18 20 22 23 26 31 31 32 31 32 34 38 44 48 49 46 43 44 41 38 39 34 44 48 50 55 53 53 49 50 53 55 58 61 63 65 66
20 20 21 21 21 21 21 22 24 27 28 29 34 38 36 35 37 37 43 45 45 46 47 44 43 41 40 43 48 54 59 57 57 59 59 62 66 66 65 67 66 66 68
24 25 26 26 26 27 29 29 28 29 32 33 33 34 37 39 37 38 39 43 41 44 47 47 43 47 47 51 52 52 52 61 66 66 62 63 64 68 73 70 67 68 71
27 29 29 31 34 36 34 34 35 34 35 35 34 33 36 36 38 41 39 39 42 45 47 48 49 46 50 48 55 57 59 60 59 70 66 66 69 74 74 73 72 74 76
32 32 34 36 38 41 37 35 38 41 40 39 38 37 38 38 41 44 44 45 47 47 51 52 51 51 52 63 65 59 60 57 68 71 73 73 80 78 78 76 78 79 82
36 37 36 38 39 40 38 37 39 43 44 42 42 40 41 42 45 47 49 49 49 53 55 55 54 59 61 64 63 62 60 66 63 67 79 82 81 81 82 80 82 84 86
38 40 40 39 40 38 40 38 38 40 42 44 45 46 47 48 49 51 52 53 54 56 59 59 60 62 62 67 66 62 62 74 76 71 73 81 83 89 85 83 86 86 86
47 43 41 39 37 39 37 37 40 41 44 45 46 48 49 50 52 54 56 58 58 60 62 64 65 67 65 69 71 66 70 65 68 68 73 82 88 88 85 85 88 88 91
Wind_Direction
228 249 229 224 224 224 219 225 229 224 227 232 233 244 251 254 258 261 265 269 274 279 276 268 256 244 243 247 250 257 262 264 267 273 275 278 287 292 297 304 306 304 307
241 235 225 218 223 224 227 228 230 229 233 238 238 243 251 255 256 263 269 274 280 278 275 266 258 246 238 250 257 258 255 257 256 269 281 283 285 294 302 303 303 304 306
235 228 216 220 223 226 228 231 232 232 233 238 241 244 252 259 262 265 274 278 279 277 279 269 256 246 244 250 250 251 245 257 272 272 278 289 296 299 303 304 302 303 306
239 227 214 218 232 228 237 230 246 234 234 236 241 244 247 251 253 262 272 278 276 278 272 265 256 242 239 254 242 247 255 268 265 283 292 298 300 297 298 299 299 301 301
231 225 223 229 240 245 235 233 259 243 245 241 238 245 245 252 255 263 273 274 275 274 270 263 250 242 249 240 241 256 258 264 277 287 290 294 296 297 298 299 300 299 298
228 232 226 238 232 227 242 248 254 243 248 252 248 249 248 250 256 262 265 269 270 269 262 255 247 245 244 252 237 251 269 277 281 287 295 298 298 299 301 301 300 297 292
234 239 215 220 236 238 249 252 257 265 257 257 251 248 248 252 256 258 262 270 270 265 258 257 247 250 245 239 241 259 269 276 283 290 295 299 300 302 303 301 297 291 290
232 222 230 237 241 240 236 241 241 238 250 249 245 249 255 247 245 254 264 261 265 266 258 250 255 254 250 242 254 269 272 276 282 293 300 304 305 305 303 302 299 294 293
216 224 227 225 220 217 214 213 212 222 237 242 241 241 242 246 254 262 259 264 258 258 256 258 252 246 244 256 267 271 277 283 290 291 297 302 299 297 297 298 295 293 290
197 192 186 180 181 195 212 220 228 227 243 238 236 232 242 252 251 259 270 256 251 253 252 253 259 262 263 267 270 274 282 287 291 300 302 304 301 295 298 297 294 291 291
221 213 231 251 244 247 251 246 254 240 243 247 245 245 244 232 237 239 254 242 257 257 261 267 267 274 276 272 274 281 284 289 294 297 302 302 299 300 300 298 296 296 294
239 235 244 254 237 245 257 250 245 243 246 245 243 251 245 247 249 246 244 250 249 256 265 273 275 275 276 276 281 279 288 294 294 298 301 304 301 301 301 298 298 297 296
232 233 240 241 235 228 235 235 241 243 242 230 222 228 237 241 241 250 258 259 261 259 266 271 277 281 284 285 282 283 288 289 292 293 298 304 300 300 299 298 297 297 297
219 223 219 223 224 227 234 233 232 232 230 219 224 232 237 235 238 247 259 270 271 271 268 277 277 281 280 281 282 285 288 291 293 298 300 297 295 300 301 300 299 299 299
250 256 253 242 230 220 218 221 231 234 227 220 229 233 234 237 246 257 263 271 269 268 270 273 283 285 285 285 284 288 292 289 293 293 295 297 299 303 302 302 301 300 299
289 276 262 256 258 256 254 252 254 248 234 224 227 236 238 242 251 260 262 265 275 279 279 278 279 284 283 282 282 289 285 287 292 291 291 291 300 304 304 302 302 301 300
294 285 290 267 265 259 259 262 259 252 247 241 239 240 240 249 254 259 267 268 277 283 285 281 286 290 282 283 277 281 278 288 287 287 289 292 300 303 304 302 299 299 300
282 284 289 273 277 277 267 266 273 270 266 261 257 252 249 255 259 260 266 272 279 283 286 287 285 293 284 281 275 276 273 294 287 289 284 291 299 301 301 299 300 300 302
280 271 273 278 279 278 280 275 273 276 272 266 263 262 262 264 272 271 270 273 276 279 282 283 285 293 292 276 277 279 280 288 288 292 289 292 298 302 304 304 302 301 303
275 275 277 276 277 277 282 283 279 278 277 277 270 263 265 277 281 280 274 275 273 276 280 280 284 290 290 286 277 283 288 284 287 296 292 289 292 296 307 304 301 302 303
278 278 274 276 278 283 281 278 277 272 273 274 276 268 265 276 280 283 279 276 272 274 281 280 284 286 291 290 285 288 290 286 292 293 289 292 289 294 306 302 300 302 303
277 282 280 278 284 287 283 273 270 269 267 268 270 269 269 274 276 277 277 275 271 271 276 279 282 287 281 290 287 292 291 285 292 286 273 284 288 298 304 304 302 302 302
273 280 282 285 288 285 279 269 266 266 265 265 265 263 267 270 270 273 275 274 274 276 277 280 283 281 285 282 288 291 290 288 293 282 272 276 286 294 302 302 301 301 301
276 280 282 285 285 288 277 273 266 265 265 265 264 262 263 266 269 271 274 276 276 278 279 282 286 284 285 287 288 287 286 288 286 289 278 276 285 295 300 300 300 301 304
274 279 274 282 286 288 281 278 272 268 267 268 267 267 269 272 274 275 276 278 279 280 284 286 286 286 285 285 286 285 289 276 281 283 287 280 278 291 297 299 300 302 302
269 264 266 278 278 281 286 280 277 277 273 271 272 272 273 275 276 279 281 281 283 284 284 286 288 287 280 284 286 283 285 285 277 275 280 283 288 292 296 299 299 301 303
Height
5752 5755 5759 5761 5764 5770 5772 5776 5782 5784 5788 5792 5793 5795 5797 5804 5802 5804 5804 5805 5805 5807 5808 5809 5809 5810 5813 5815 5816 5818 5821 5821 5823 5823 5824 5824 5824 5823 5823 5822 5821 5820 5819
5748 5750 5752 5756 5761 5766 5769 5773 5777 5780 5784 5788 5789 5791 5793 5798 5798 5798 5800 5801 5802 5802 5803 5804 5805 5807 5809 5811 5814 5815 5816 5816 5818 5818 5819 5819 5820 5819 5817 5816 5815 5814 5813
5744 5745 5747 5752 5757 5761 5764 5769 5771 5775 5778 5782 5784 5786 5788 5793 5793 5793 5796 5797 5797 5797 5798 5800 5801 5804 5806 5807 5809 5810 5810 5812 5813 5814 5814 5815 5814 5813 5812 5810 5808 5806 5805
5735 5740 5744 5747 5749 5754 5758 5763 5765 5769 5772 5776 5779 5780 5782 5784 5788 5788 5790 5791 5792 5791 5792 5794 5797 5798 5801 5802 5804 5805 5807 5807 5808 5807 5808 5809 5808 5807 5805 5803 5801 5799 5799
5729 5732 5736 5741 5742 5746 5752 5757 5759 5763 5765 5769 5771 5774 5776 5779 5781 5782 5783 5785 5786 5786 5787 5789 5792 5795 5797 5798 5799 5800 5801 5802 5803 5803 5804 5803 5802 5800 5799 5797 5794 5793 5791
5723 5727 5731 5734 5737 5741 5747 5752 5753 5756 5760 5761 5764 5768 5770 5773 5775 5776 5777 5779 5780 5781 5783 5785 5787 5789 5791 5792 5794 5795 5797 5798 5798 5797 5798 5796 5795 5793 5791 5790 5788 5786 5784
5719 5721 5727 5731 5736 5739 5742 5745 5747 5751 5752 5755 5758 5761 5763 5766 5769 5769 5771 5773 5775 5776 5777 5779 5782 5783 5785 5786 5788 5790 5791 5791 5790 5791 5790 5789 5787 5785 5783 5782 5780 5777 5776
5715 5719 5723 5727 5730 5733 5735 5737 5740 5743 5746 5750 5753 5756 5759 5761 5762 5763 5765 5767 5769 5770 5772 5775 5775 5777 5779 5781 5782 5783 5783 5784 5784 5783 5782 5780 5778 5775 5774 5773 5771 5769 5766
5712 5714 5718 5722 5725 5727 5729 5732 5734 5737 5741 5743 5746 5751 5754 5756 5756 5757 5759 5761 5763 5766 5767 5768 5770 5772 5774 5775 5775 5777 5777 5778 5776 5776 5776 5773 5773 5770 5766 5763 5761 5759 5758
5713 5714 5717 5718 5721 5724 5726 5728 5731 5735 5738 5740 5743 5746 5749 5750 5750 5753 5755 5757 5759 5760 5762 5763 5765 5767 5768 5770 5771 5772 5770 5768 5768 5766 5765 5764 5762 5760 5757 5755 5754 5751 5749
5711 5713 5715 5716 5718 5720 5722 5725 5729 5731 5733 5737 5739 5741 5744 5748 5748 5750 5751 5753 5755 5757 5757 5759 5760 5760 5761 5763 5762 5762 5762 5762 5760 5758 5756 5754 5751 5749 5746 5744 5742 5740 5738
5709 5712 5714 5715 5717 5717 5718 5722 5725 5728 5732 5733 5733 5736 5738 5739 5742 5744 5746 5748 5750 5751 5752 5753 5754 5754 5755 5754 5755 5753 5752 5750 5750 5748 5747 5744 5741 5739 5736 5733 5730 5727 5725
5705 5706 5709 5710 5712 5713 5714 5716 5718 5721 5725 5727 5728 5731 5733 5735 5736 5739 5741 5743 5744 5746 5747 5748 5746 5746 5746 5745 5746 5745 5743 5741 5739 5739 5738 5735 5732 5728 5725 5723 5720 5716 5713
5704 5706 5707 5707 5707 5707 5708 5712 5714 5715 5718 5721 5723 5727 5729 5730 5732 5734 5737 5738 5737 5737 5740 5739 5739 5739 5738 5736 5736 5735 5734 5732 5730 5729 5727 5722 5721 5718 5716 5712 5708 5704 5701
5701 5703 5703 5704 5705 5706 5708 5710 5710 5712 5714 5715 5718 5720 5723 5725 5728 5730 5731 5732 5731 5731 5730 5732 5729 5728 5727 5726 5727 5725 5722 5720 5719 5717 5714 5712 5709 5706 5704 5699 5695 5692 5687
5699 5700 5702 5703 5703 5705 5707 5707 5708 5711 5712 5713 5714 5716 5718 5720 5722 5723 5724 5724 5724 5721 5720 5724 5723 5719 5716 5716 5716 5714 5711 5709 5708 5705 5703 5700 5697 5694 5691 5687 5682 5678 5674
5696 5697 5698 5699 5700 5700 5701 5701 5704 5706 5707 5709 5711 5712 5711 5712 5714 5715 5716 5715 5714 5713 5711 5711 5711 5708 5704 5704 5703 5701 5699 5699 5697 5694 5692 5689 5685 5681 5677 5673 5669 5665 5660
5693 5693 5694 5694 5694 5694 5695 5696 5697 5698 5700 5701 5702 5701 5704 5705 5705 5707 5707 5705 5703 5702 5699 5698 5698 5695 5691 5689 5689 5688 5687 5686 5685 5682 5680 5676 5672 5668 5664 5660 5655 5650 5645
5687 5687 5688 5689 5690 5690 5690 5691 5692 5692 5692 5693 5693 5694 5696 5696 5696 5695 5695 5694 5693 5691 5690 5688 5687 5684 5681 5679 5679 5678 5677 5674 5672 5670 5666 5663 5659 5655 5651 5646 5640 5635 5630
5683 5683 5683 5683 5683 5684 5685 5686 5686 5685 5684 5684 5684 5684 5684 5685 5685 5684 5682 5681 5681 5680 5679 5677 5675 5674 5673 5672 5670 5668 5665 5660 5657 5655 5652 5649 5646 5641 5636 5630 5625 5619 5613
5677 5677 5677 5677 5678 5678 5678 5678 5677 5676 5676 5676 5676 5676 5676 5676 5675 5674 5672 5671 5670 5669 5668 5666 5662 5662 5659 5658 5656 5653 5650 5647 5642 5638 5635 5633 5629 5625 5620 5613 5607 5601 5595
5671 5670 5671 5671 5670 5669 5671 5670 5668 5667 5666 5667 5668 5668 5668 5668 5666 5664 5662 5660 5659 5657 5655 5653 5651 5651 5647 5643 5642 5638 5635 5632 5629 5624 5617 5616 5613 5608 5602 5596 5590 5584 5577
5662 5663 5662 5661 5661 5659 5659 5659 5658 5657 5656 5657 5657 5657 5657 5658 5655 5653 5651 5648 5647 5645 5643 5641 5639 5637 5634 5632 5629 5627 5622 5615 5612 5608 5603 5600 5595 5591 5583 5577 5571 5564 5558
5653 5652 5652 5651 5650 5649 5648 5648 5647 5644 5643 5645 5645 5645 5644 5643 5641 5639 5637 5635 5632 5631 5629 5628 5625 5624 5621 5617 5614 5611 5606 5602 5599 5594 5587 5584 5577 5575 5566 5558 5550 5542 5535
5642 5642 5641 5641 5640 5639 5637 5638 5637 5635 5633 5632 5632 5633 5632 5631 5630 5627 5625 5622 5620 5617 5615 5613 5610 5608 5605 5602 5597 5595 5591 5586 5580 5575 5568 5566 5562 5557 5550 5541 5532 5522 5515
5630 5629 5630 5631 5629 5628 5627 5627 5626 5626 5624 5622 5620 5619 5619 5618 5617 5615 5612 5610 5607 5604 5601 5597 5595 5593 5590 5584 5580 5577 5572 5568 5563 5558 5552 5548 5542 5535 5532 5524 5515 5504 5494